[[{"header":{"parameterUnit":"m.s-1","parameterCategory":1,"la1":30.2991,"la2":30.254,"lo1":-89.0895,"lo2":-89.0444,"dy":0.0017,"dx":0.0017,"nx":28,"ny":28,"refTime":"2024-07-24T21:00:00:Z","depth":0,"parameterNumber":2,"parameterNumberName":"U-component_of_WINDS"},"data":[0,0,0,0,0,0,0,0,0,0,0,0,0,0,0,0,0,0,0,0,0,0,0,0,0,0,0,0,0,0,0,0,0,0,0,0,0,0,0,0,0,0,0,0,0,0,0,0,0,0,0,0,0,0,0,0,0,0,1.5089,1.5091,0,1.5307,1.5309,1.5312,1.5407,1.5407,1.5406,1.5406,1.5632,1.5638,1.5644,0,0,0,0,0,0,0,0,0,0,0,0,0,1.4756,1.4761,1.5088,1.5091,1.5094,1.5306,1.531,1.5313,1.5407,1.5407,1.5406,1.5406,1.563,1.5637,1.5645,0,0,0,0,0,0,0,0,0,0,0,0,0,1.493,1.4763,1.5088,1.5167,1.5176,1.5306,1.531,1.5313,1.5407,1.5407,1.5406,1.5406,1.5627,1.5636,1.5646,1.5714,0,0,1.5675,1.5679,0,0,0,0,0,0,0,0,1.492,1.4942,1.5152,1.5162,1.5172,1.5329,1.5275,1.5448,1.5407,1.5319,1.5406,1.5405,1.5532,1.5549,1.5591,1.5725,1.5734,1.5675,1.5681,1.5685,1.5688,0,0,0,0,0,0,0,1.4908,1.4933,1.5175,1.5155,1.5167,1.5192,1.5216,1.5308,1.5426,1.5327,1.5334,1.5359,1.5537,1.5582,1.5597,1.5738,1.5675,1.5684,1.5689,1.5693,1.594,1.5941,0,0,0,0,0,0,1.4882,1.4922,1.5168,1.5182,1.5042,1.5198,1.5225,1.5279,1.5425,1.5447,1.5359,1.5363,1.5566,1.5586,1.5605,1.5696,1.5685,1.5694,1.57,1.5939,1.594,1.5941,0,0,0,0,0,0,1.4875,1.4903,1.5159,1.5054,1.5089,1.5205,1.5264,1.5284,1.5329,1.5449,1.5471,1.5383,1.5566,1.5592,1.5687,1.5705,1.5698,1.5707,1.5938,1.5939,1.594,1.5877,0,0,0,0,0,0,1.4865,1.49,1.4927,1.5054,1.5094,1.5236,1.5266,1.5289,1.5345,1.5351,1.5477,1.5498,1.5568,1.5672,1.5696,1.5718,1.5714,1.5937,1.5939,1.594,1.5878,1.5876,1.5874,0,0,0,0,0,1.4853,1.49,1.4928,1.4957,1.5129,1.5237,1.526,1.5338,1.5346,1.5374,1.5451,1.5494,1.5699,1.5681,1.5709,1.5734,1.5936,1.5938,1.594,1.5878,1.5876,1.5874,0,0,0,0,0,0,1.4773,1.4918,1.495,1.504,1.5125,1.5253,1.5291,1.5333,1.5418,1.5421,1.5516,1.5543,1.563,1.5692,1.5669,1.5808,1.5821,1.5829,1.5765,1.5763,1.5762,1.5745,1.5722,0,0,0,0,0,1.4765,1.484,1.4963,1.5031,1.5072,1.5173,1.5223,1.5277,1.5369,1.5405,1.549,1.5578,1.5663,1.5717,1.5801,1.5887,1.5916,1.5918,1.5916,1.5914,1.5919,1.597,1.5973,1.5947,1.5947,1.5947,0,0,1.4752,1.484,1.4882,1.5017,1.5089,1.5165,1.5203,1.5282,1.5339,1.5418,1.5512,1.5577,1.5682,1.5772,1.5817,1.5826,1.5933,1.5916,1.5914,1.5921,1.5972,1.5975,1.5977,1.5949,1.5948,1.5948,0,0,1.4765,1.4839,1.4904,1.4975,1.5084,1.5151,1.5167,1.5288,1.5334,1.543,1.5491,1.556,1.5704,1.5776,1.5832,1.5873,1.5915,1.5898,1.5888,1.5936,1.5938,1.594,1.5956,1.596,1.5903,1.5903,1.5902,0,1.4734,1.485,1.4932,1.5007,1.5065,1.5139,1.5206,1.5272,1.5402,1.5441,1.545,1.5632,1.5708,1.5817,1.5826,1.5869,1.589,1.5884,1.5931,1.5934,1.5938,1.5953,1.5958,1.59,1.59,1.59,1.5901,0,1.4807,1.4886,1.4926,1.5049,1.5112,1.5183,1.5276,1.533,1.5378,1.5444,1.5541,1.5635,1.574,1.5769,1.5817,1.5885,1.5888,1.5913,1.5928,1.5936,1.5952,1.5959,1.5896,1.5897,1.5898,1.5898,0,0,1.4776,1.4945,1.4958,1.5015,1.514,1.5204,1.5278,1.538,1.5424,1.5512,1.5577,1.5696,1.572,1.5783,1.584,1.5882,1.5909,1.5902,1.5906,1.59,1.5991,1.5972,1.5977,1.5938,1.5939,1.594,1.5982,0,1.4807,1.4943,1.5019,1.5123,1.5198,1.5269,1.5334,1.5418,1.5482,1.5556,1.5627,1.571,1.5735,1.5774,1.5818,1.5896,1.5928,1.5894,1.6,1.6003,1.5972,1.5986,1.5966,1.6001,1.5989,1.599,1.5991,0,1.4861,1.4947,1.5058,1.5176,1.521,1.5267,1.5367,1.5435,1.5533,1.5577,1.5646,1.5703,1.5784,1.5792,1.5907,1.5882,1.593,1.5974,1.5977,1.5991,1.5997,1.6,1.6014,1.6019,1.6002,1.6001,1.6,0,1.4828,1.4972,1.5057,1.5104,1.5243,1.5281,1.5341,1.5437,1.5494,1.5581,1.5619,1.5715,1.5767,1.5841,1.5922,1.592,1.6028,1.6043,1.6067,1.6065,1.6088,1.6085,1.611,1.6117,1.6117,1.6117,1.6117,0,1.4855,1.4921,1.5044,1.5097,1.5173,1.526,1.5333,1.5398,1.5484,1.5551,1.5618,1.568,1.5783,1.5857,1.5921,1.6006,1.6029,1.6068,1.6084,1.6062,1.6057,1.6095,1.6095,1.6118,1.6118,1.6118,1.6117,0,1.4831,1.4917,1.5015,1.5138,1.5171,1.5221,1.5327,1.5381,1.5448,1.5532,1.5557,1.5663,1.5755,1.5842,1.5965,1.6008,1.6093,1.6114,1.606,1.6069,1.6089,1.6086,1.6139,1.6151,1.6149,1.6149,1.6149,0,1.4843,1.4895,1.5024,1.5073,1.5131,1.521,1.5268,1.5356,1.5414,1.5529,1.5569,1.5665,1.5747,1.5889,1.5978,1.6072,1.6096,1.6108,1.6111,1.6087,1.6097,1.6093,1.6099,1.6106,1.6106,1.6106,1.6105,0,1.4855,1.4895,1.4975,1.5071,1.5138,1.5218,1.53,1.5337,1.5441,1.5502,1.5596,1.5659,1.5784,1.5879,1.5983,1.6045,1.6093,1.6104,1.6115,1.6093,1.606,1.6079,1.6055,1.6102,1.6103,1.6103,1.6103,1.6103,1.485,1.49,1.4998,1.5086,1.5157,1.5232,1.5289,1.5364,1.5443,1.5551,1.5598,1.5693,1.579,1.5935,1.5996,1.6072,1.6084,1.6099,1.6103,1.6106,1.6101,1.6047,1.6092,1.6092,1.6092,1.6092,1.6092,0,1.4866,1.4933,1.5013,1.5125,1.5194,1.5232,1.5325,1.5381,1.5463,1.5549,1.5628,1.5736,1.5828,1.5924,1.6021,1.6064,1.6088,1.6087,1.6085,1.6099,1.6085,1.6066,1.6065,1.6065,1.6065,1.6065,1.6065,1.6065,1.4883,1.4969,1.502,1.5143,1.521,1.5303,1.5353,1.5422,1.5491,1.5609,1.5686,1.5747,1.5837,1.5942,1.6029,1.6055,1.6088,1.608,1.6112,1.6098,1.6099,1.6101,1.6084,1.6086,1.6086,1.6119,1.6119,1.612]},{"header":{"parameterUnit":"m.s-1","parameterCategory":1,"la1":30.2991,"la2":30.254,"lo1":-89.0895,"lo2":-89.0444,"dy":0.0017,"dx":0.0017,"nx":28,"ny":28,"refTime":"2024-07-24T21:00:00:Z","depth":0,"parameterNumber":3,"parameterNumberName":"V-component_of_WINDS"},"data":[0,0,0,0,0,0,0,0,0,0,0,0,0,0,0,0,0,0,0,0,0,0,0,0,0,0,0,0,0,0,0,0,0,0,0,0,0,0,0,0,0,0,0,0,0,0,0,0,0,0,0,0,0,0,0,0,0,0,3.3183,3.3183,0,3.3125,3.3124,3.3124,3.3119,3.3119,3.312,3.3121,3.3054,3.3051,3.3049,0,0,0,0,0,0,0,0,0,0,0,0,0,3.3284,3.3282,3.3183,3.3183,3.3182,3.3125,3.3124,3.3123,3.3119,3.3119,3.312,3.3121,3.3054,3.3052,3.3049,0,0,0,0,0,0,0,0,0,0,0,0,0,3.3234,3.3281,3.3183,3.3173,3.3171,3.3125,3.3124,3.3123,3.3118,3.3119,3.312,3.3121,3.3055,3.3052,3.3048,3.3007,0,0,3.3037,3.3036,0,0,0,0,0,0,0,0,3.3237,3.323,3.3175,3.3173,3.3172,3.313,3.3135,3.3084,3.3118,3.3138,3.3121,3.3122,3.3078,3.3073,3.3059,3.3004,3.3001,3.3037,3.3035,3.3033,3.3032,0,0,0,0,0,0,0,3.324,3.3233,3.316,3.3174,3.3172,3.3169,3.3163,3.3125,3.3103,3.3137,3.3136,3.313,3.3077,3.3063,3.3058,3.3,3.3037,3.3034,3.3032,3.303,3.2907,3.2906,0,0,0,0,0,0,3.3247,3.3236,3.3162,3.3158,3.3208,3.3166,3.3159,3.3142,3.3104,3.3099,3.3129,3.313,3.3068,3.3062,3.3055,3.3004,3.3033,3.303,3.3028,3.2908,3.2907,3.2906,0,0,0,0,0,0,3.3249,3.324,3.3164,3.3197,3.3187,3.3163,3.3144,3.3141,3.3126,3.3098,3.3093,3.3119,3.3069,3.306,3.3019,3.3002,3.3029,3.3025,3.2909,3.2908,3.2906,3.2901,0,0,0,0,0,0,3.3252,3.3241,3.3227,3.3197,3.3185,3.3131,3.3143,3.3139,3.3121,3.3122,3.3087,3.3082,3.3069,3.3025,3.3016,3.2997,3.3022,3.2911,3.2909,3.2907,3.2903,3.2899,3.2897,0,0,0,0,0,3.3256,3.3226,3.3226,3.3217,3.3167,3.313,3.3123,3.3111,3.312,3.3104,3.3086,3.3083,3.3005,3.3021,3.3011,3.299,3.2912,3.2909,3.2907,3.2904,3.29,3.2897,0,0,0,0,0,0,3.3251,3.3222,3.3221,3.3182,3.3159,3.313,3.3109,3.3107,3.3079,3.3081,3.3064,3.3056,3.3016,3.2999,3.3017,3.2948,3.2959,3.2955,3.2961,3.2957,3.2954,3.2958,3.3019,0,0,0,0,0,3.3246,3.3221,3.3196,3.3163,3.3152,3.3133,3.3116,3.3109,3.3083,3.3073,3.3052,3.3025,3.2995,3.2975,3.2945,3.2901,3.2892,3.2882,3.2879,3.2876,3.2872,3.2847,3.2842,3.2897,3.2897,3.2897,0,0,3.3234,3.3215,3.32,3.3162,3.3143,3.3116,3.3124,3.3095,3.3073,3.3068,3.3028,3.3012,3.2981,3.2938,3.2918,3.2923,3.2855,3.2873,3.2872,3.2868,3.2844,3.2838,3.2834,3.2895,3.2896,3.2896,0,0,3.3199,3.3183,3.3154,3.3136,3.3109,3.3096,3.3089,3.3061,3.305,3.3011,3.3006,3.298,3.2928,3.2906,3.2888,3.2846,3.2843,3.2837,3.282,3.2796,3.2792,3.2788,3.2772,3.2766,3.2833,3.2833,3.2833,0,3.3187,3.3148,3.3138,3.3109,3.3092,3.3089,3.3058,3.304,3.3004,3.2991,3.2997,3.2933,3.2912,3.2864,3.2854,3.284,3.283,3.284,3.2794,3.2789,3.2785,3.277,3.2764,3.2832,3.2832,3.2832,3.2832,0,3.3134,3.3107,3.3086,3.3054,3.3035,3.3005,3.2989,3.297,3.2965,3.2951,3.2911,3.2886,3.2851,3.284,3.2833,3.279,3.2794,3.2797,3.2808,3.278,3.2765,3.2759,3.2831,3.2832,3.2832,3.2832,0,0,3.3093,3.3058,3.305,3.3036,3.3006,3.2984,3.2953,3.2922,3.2906,3.2881,3.2854,3.2811,3.2814,3.2793,3.2784,3.2763,3.2731,3.2768,3.2767,3.2762,3.2682,3.2679,3.2673,3.2729,3.2728,3.2727,3.2684,0,3.3054,3.3003,3.2994,3.2948,3.2922,3.2918,3.2892,3.287,3.2856,3.283,3.2815,3.2784,3.2791,3.2779,3.2758,3.2739,3.2714,3.2742,3.2701,3.27,3.2709,3.2665,3.2662,3.2623,3.2678,3.2677,3.2677,0,3.3001,3.2978,3.293,3.2905,3.2893,3.287,3.2841,3.2817,3.2791,3.2783,3.2761,3.2755,3.2721,3.2735,3.2687,3.2707,3.2689,3.2678,3.2676,3.2671,3.2686,3.2658,3.261,3.2604,3.2668,3.2668,3.2669,0,3.2975,3.2932,3.2898,3.2885,3.2855,3.2839,3.2825,3.28,3.2782,3.2756,3.2744,3.2713,3.2696,3.2671,3.2656,3.2667,3.2609,3.2622,3.26,3.26,3.2587,3.2588,3.2535,3.2577,3.2577,3.2578,3.2578,0,3.2932,3.2902,3.2886,3.2865,3.2832,3.2821,3.2788,3.2773,3.2752,3.2727,3.2721,3.2697,3.2679,3.2652,3.2639,3.2602,3.2594,3.2585,3.2581,3.2585,3.2586,3.2572,3.2574,3.2576,3.2576,3.2577,3.2577,0,3.2897,3.2885,3.2847,3.2823,3.2816,3.2792,3.277,3.2748,3.2736,3.2704,3.2695,3.2674,3.2642,3.2625,3.2584,3.2576,3.2533,3.2532,3.2543,3.2541,3.252,3.2522,3.2456,3.2447,3.2496,3.2496,3.2495,0,3.287,3.2847,3.2821,3.2805,3.2792,3.2766,3.2748,3.2737,3.2718,3.2688,3.2669,3.2638,3.2612,3.256,3.2539,3.2508,3.2505,3.2484,3.25,3.2504,3.2504,3.2505,3.2502,3.2481,3.2481,3.248,3.248,0,3.2822,3.2818,3.2794,3.2768,3.2748,3.2726,3.2705,3.2691,3.2676,3.2655,3.2624,3.2604,3.2563,3.2531,3.2498,3.2481,3.2477,3.2476,3.2469,3.2471,3.2478,3.2474,3.2534,3.2477,3.2477,3.2477,3.2477,3.2477,3.279,3.277,3.2749,3.2723,3.2706,3.2686,3.2665,3.2651,3.2625,3.2593,3.2587,3.2554,3.2528,3.2484,3.2467,3.2439,3.2443,3.2433,3.243,3.2428,3.2427,3.2484,3.2433,3.2433,3.2433,3.2433,3.2433,0,3.2742,3.2729,3.2705,3.2676,3.2655,3.2657,3.2633,3.2614,3.2586,3.2564,3.2539,3.2503,3.2472,3.245,3.2418,3.24,3.2397,3.2391,3.2392,3.2388,3.2425,3.2434,3.2394,3.2394,3.2394,3.2394,3.2394,3.2394,3.2714,3.2681,3.2674,3.2632,3.2619,3.2588,3.2574,3.2556,3.2538,3.2499,3.2474,3.2461,3.2438,3.2405,3.2376,3.237,3.2358,3.2353,3.2347,3.2381,3.2386,3.2389,3.2398,3.2351,3.2351,3.2312,3.2312,3.2311]}]]